When you browse on this site, cookies collect data to enhance your experience and personalize the content and advertising you see.
Visit our Privacy Policy to learn more. By continuing to use the site, you agree to this use of cookies and data.
  • In Romania
  • List of Countries
  • For 7 days
  • Water Temperature
  • Weather Map
  • Weather Widgets
  • user-avatar
    Login

    Hourly Weather La-Plata

    Today, 10 December, Tuesday

    Time Temperature Precipitation Wind Pressure Humidity
    00:00 +28°C° 0 mm 5 mps 754 mmHg 32%
    01:00 +27°C° 0 mm 6 mps 754 mmHg 35%
    02:00 +27°C° 0 mm 6 mps 754 mmHg 35%
    03:00 +26°C° 0 mm 5 mps 754 mmHg 36%
    04:00 +26°C° 0 mm 5 mps 754 mmHg 37%
    05:00 +25°C° 0 mm 5 mps 755 mmHg 37%
    06:00 +28°C° 0 mm 6 mps 755 mmHg 33%
    07:00 +30°C° 0 mm 6 mps 755 mmHg 29%
    08:00 +34°C° 0 mm 6 mps 756 mmHg 26%
    09:00 +36°C° 0 mm 6 mps 755 mmHg 23%
    10:00 +39°C° 0 mm 6 mps 755 mmHg 20%
    11:00 +40°C° 0 mm 6 mps 755 mmHg 18%
    12:00 +41°C° 0 mm 6 mps 754 mmHg 16%
    13:00 +42°C° 0 mm 5 mps 753 mmHg 15%
    14:00 +42°C° 0 mm 5 mps 752 mmHg 13%
    15:00 +42°C° 0 mm 5 mps 752 mmHg 14%
    16:00 +41°C° 0 mm 4 mps 752 mmHg 15%
    17:00 +40°C° 0 mm 4 mps 751 mmHg 16%
    18:00 +37°C° 0 mm 4 mps 752 mmHg 19%
    19:00 +34°C° 0 mm 3 mps 752 mmHg 23%
    20:00 +31°C° 0 mm 3 mps 753 mmHg 26%
    21:00 +30°C° 0 mm 3 mps 753 mmHg 28%
    22:00 +30°C° 0 mm 3 mps 753 mmHg 31%
    23:00 +29°C° 0 mm 3 mps 753 mmHg 33%

    Tomorrow, 11 December, Wednesday

    Time Temperature Precipitation Wind Pressure Humidity
    00:00 +29°C° 0 mm 4 mps 753 mmHg 36%
    01:00 +29°C° 0 mm 5 mps 753 mmHg 38%
    02:00 +29°C° 0 mm 5 mps 753 mmHg 41%
    03:00 +28°C° 0 mm 5 mps 753 mmHg 41%
    04:00 +28°C° 0 mm 5 mps 752 mmHg 41%
    05:00 +28°C° 0 mm 5 mps 752 mmHg 41%
    06:00 +29°C° 0 mm 5 mps 752 mmHg 37%
    07:00 +32°C° 0 mm 5 mps 752 mmHg 33%
    08:00 +34°C° 0 mm 6 mps 752 mmHg 30%
    09:00 +35°C° 0 mm 6 mps 752 mmHg 27%
    10:00 +38°C° 0 mm 6 mps 752 mmHg 24%
    11:00 +40°C° 0 mm 5 mps 751 mmHg 21%
    12:00 +41°C° 0 mm 5 mps 750 mmHg 20%
    13:00 +42°C° 0 mm 5 mps 749 mmHg 18%
    14:00 +42°C° 0 mm 5 mps 748 mmHg 17%
    15:00 +36°C° 0.3 mm 6 mps 748 mmHg 32%
    16:00 +30°C° 0.3 mm 7 mps 748 mmHg 48%
    17:00 +24°C° 0.3 mm 8 mps 748 mmHg 63%
    18:00 +24°C° 0.3 mm 6 mps 749 mmHg 66%
    19:00 +25°C° 0.3 mm 5 mps 750 mmHg 69%
    20:00 +23°C° 0.3 mm 4 mps 750 mmHg 71%
    21:00 +24°C° 0.8 mm 3 mps 750 mmHg 74%
    22:00 +24°C° 0.8 mm 3 mps 751 mmHg 76%
    23:00 +24°C° 0.8 mm 3 mps 751 mmHg 79%

    Day after tomorrow, 12 December, Thursday

    Time Temperature Precipitation Wind Pressure Humidity
    00:00 +22°C° 0.4 mm 3 mps 751 mmHg 81%
    01:00 +22°C° 0.4 mm 4 mps 751 mmHg 83%
    02:00 +21°C° 0.4 mm 4 mps 750 mmHg 86%
    03:00 +21°C° 0 mm 4 mps 750 mmHg 86%
    04:00 +21°C° 0 mm 4 mps 751 mmHg 85%
    05:00 +21°C° 0 mm 4 mps 751 mmHg 85%
    06:00 +23°C° 0 mm 5 mps 751 mmHg 65%
    07:00 +26°C° 0 mm 6 mps 751 mmHg 45%
    08:00 +28°C° 0 mm 7 mps 752 mmHg 24%
    09:00 +31°C° 0 mm 8 mps 752 mmHg 22%
    10:00 +32°C° 0 mm 8 mps 752 mmHg 19%
    11:00 +33°C° 0 mm 9 mps 752 mmHg 17%
    12:00 +33°C° 0 mm 8 mps 752 mmHg 16%
    13:00 +33°C° 0 mm 8 mps 753 mmHg 15%
    14:00 +33°C° 0 mm 7 mps 753 mmHg 14%
    15:00 +32°C° 0 mm 7 mps 753 mmHg 15%
    16:00 +30°C° 0 mm 7 mps 753 mmHg 17%
    17:00 +29°C° 0 mm 7 mps 753 mmHg 18%
    18:00 +26°C° 0 mm 6 mps 754 mmHg 22%
    19:00 +23°C° 0 mm 6 mps 756 mmHg 26%
    20:00 +20°C° 0 mm 6 mps 757 mmHg 30%
    21:00 +19°C° 0 mm 6 mps 757 mmHg 35%
    22:00 +16°C° 0 mm 5 mps 758 mmHg 39%
    23:00 +15°C° 0 mm 5 mps 759 mmHg 44%

    13 December, Friday

    Time Temperature Precipitation Wind Pressure Humidity
    00:00 +14°C° 0 mm 5 mps 759 mmHg 48%
    01:00 +13°C° 0 mm 4 mps 760 mmHg 52%
    02:00 +12°C° 0 mm 4 mps 760 mmHg 55%
    03:00 +11°C° 0 mm 4 mps 760 mmHg 60%
    04:00 +10°C° 0 mm 4 mps 760 mmHg 64%
    05:00 +8°C° 0 mm 4 mps 760 mmHg 68%
    06:00 +12°C° 0 mm 3 mps 761 mmHg 56%
    07:00 +14°C° 0 mm 3 mps 761 mmHg 44%
    08:00 +17°C° 0 mm 3 mps 761 mmHg 32%
    09:00 +20°C° 0 mm 2 mps 761 mmHg 26%
    10:00 +24°C° 0 mm 2 mps 761 mmHg 19%
    11:00 +26°C° 0 mm 2 mps 761 mmHg 13%
    12:00 +27°C° 0 mm 3 mps 760 mmHg 14%
    13:00 +27°C° 0 mm 3 mps 760 mmHg 16%
    14:00 +27°C° 0 mm 4 mps 759 mmHg 18%
    15:00 +26°C° 0 mm 4 mps 759 mmHg 22%
    16:00 +25°C° 0 mm 5 mps 758 mmHg 26%
    17:00 +22°C° 0 mm 5 mps 758 mmHg 31%
    18:00 +21°C° 0 mm 5 mps 758 mmHg 33%
    19:00 +20°C° 0 mm 5 mps 758 mmHg 36%
    20:00 +19°C° 0 mm 5 mps 759 mmHg 39%
    21:00 +19°C° 0 mm 6 mps 759 mmHg 43%
    22:00 +19°C° 0 mm 6 mps 759 mmHg 47%
    23:00 +19°C° 0 mm 6 mps 759 mmHg 51%

    14 December, Saturday

    Time Temperature Precipitation Wind Pressure Humidity
    00:00 +18°C° 0 mm 7 mps 759 mmHg 52%
    01:00 +18°C° 0 mm 8 mps 758 mmHg 53%
    02:00 +18°C° 0 mm 8 mps 758 mmHg 54%
    03:00 +18°C° 0 mm 8 mps 758 mmHg 55%
    04:00 +17°C° 0 mm 8 mps 758 mmHg 56%
    05:00 +17°C° 0 mm 8 mps 758 mmHg 57%
    06:00 +20°C° 0 mm 8 mps 758 mmHg 52%
    07:00 +21°C° 0 mm 8 mps 758 mmHg 47%
    08:00 +22°C° 0 mm 8 mps 758 mmHg 42%
    09:00 +26°C° 0 mm 8 mps 758 mmHg 37%
    10:00 +28°C° 0 mm 7 mps 757 mmHg 31%
    11:00 +30°C° 0 mm 7 mps 757 mmHg 25%
    12:00 +33°C° 0 mm 6 mps 756 mmHg 22%
    13:00 +34°C° 0 mm 5 mps 755 mmHg 19%
    14:00 +36°C° 0 mm 4 mps 754 mmHg 16%
    15:00 +36°C° 0 mm 3 mps 754 mmHg 16%
    16:00 +36°C° 0 mm 3 mps 754 mmHg 15%
    17:00 +36°C° 0 mm 2 mps 753 mmHg 15%
    18:00 +34°C° 0 mm 2 mps 754 mmHg 20%
    19:00 +30°C° 0 mm 3 mps 754 mmHg 26%
    20:00 +28°C° 0 mm 3 mps 755 mmHg 31%
    21:00 +27°C° 0 mm 3 mps 755 mmHg 37%
    22:00 +26°C° 0 mm 3 mps 755 mmHg 43%
    23:00 +25°C° 0 mm 3 mps 755 mmHg 48%

    15 December, Sunday

    Time Temperature Precipitation Wind Pressure Humidity
    00:00 +24°C° 0 mm 3 mps 755 mmHg 51%
    01:00 +22°C° 0 mm 3 mps 755 mmHg 53%
    02:00 +21°C° 0 mm 3 mps 755 mmHg 55%
    03:00 +20°C° 0 mm 3 mps 756 mmHg 58%
    04:00 +19°C° 0 mm 4 mps 756 mmHg 61%
    05:00 +19°C° 0 mm 5 mps 756 mmHg 64%
    06:00 +21°C° 0 mm 5 mps 757 mmHg 56%
    07:00 +25°C° 0 mm 5 mps 757 mmHg 48%
    08:00 +27°C° 0 mm 5 mps 758 mmHg 40%
    09:00 +29°C° 0 mm 5 mps 758 mmHg 35%
    10:00 +32°C° 0 mm 5 mps 758 mmHg 31%
    11:00 +34°C° 0 mm 5 mps 757 mmHg 26%
    12:00 +34°C° 0 mm 6 mps 757 mmHg 24%
    13:00 +34°C° 0 mm 7 mps 757 mmHg 22%
    14:00 +34°C° 0 mm 8 mps 756 mmHg 20%
    15:00 +32°C° 0 mm 9 mps 756 mmHg 24%
    16:00 +29°C° 0 mm 9 mps 757 mmHg 28%
    17:00 +28°C° 0 mm 9 mps 757 mmHg 32%
    18:00 +24°C° 0 mm 9 mps 757 mmHg 39%
    19:00 +22°C° 0 mm 8 mps 758 mmHg 47%
    20:00 +18°C° 0 mm 7 mps 759 mmHg 54%
    21:00 +17°C° 0 mm 7 mps 759 mmHg 58%
    22:00 +17°C° 0 mm 6 mps 759 mmHg 62%
    23:00 +16°C° 0 mm 6 mps 759 mmHg 66%
    Show more